Wetbulb
45.97 40.66 37.75 42.25 44.93 42.95 42.67 41.10 39.78 42.34 44.62 42.46 41.84 41.87 43.03 43.24 42.59 43.35 44.40 44.34 44.49 44.35 45.94 46.93 46.78 46.88 48.56 49.10 49.61 50.87 51.93 52.56 51.86 52.06 51.56 51.03 51.00 51.32 50.15 49.18 48.92 49.69 49.50 49.84
41.47 37.69 44.17 45.74 44.92 42.62 41.61 40.21 38.77 43.48 43.88 40.60 40.31 39.93 44.17 44.65 42.50 43.68 44.81 44.33 44.18 43.94 44.24 46.08 46.00 46.26 46.40 47.25 48.39 49.06 50.31 50.74 51.71 52.45 51.78 51.23 51.24 50.64 49.73 48.20 47.18 47.65 45.97 46.34
39.17 41.53 45.77 43.53 41.46 40.13 39.67 39.01 39.72 40.05 41.00 39.73 36.87 36.39 39.04 43.55 43.94 44.48 45.44 46.27 45.78 44.37 43.48 44.67 45.47 45.17 44.98 44.09 44.81 46.38 47.64 49.72 51.15 51.88 51.66 51.72 51.40 50.20 48.44 46.61 45.70 44.79 44.65 44.46
40.82 43.91 42.73 40.63 39.86 41.08 36.94 42.43 40.53 39.80 37.89 32.93 38.89 30.37 37.14 41.32 42.37 42.54 43.74 44.65 44.97 44.27 44.90 44.70 44.37 43.86 43.48 43.06 43.99 45.22 45.93 46.26 48.56 50.68 50.66 50.37 49.02 46.48 46.31 44.70 43.60 42.38 42.53 42.06
38.26 39.41 38.96 38.76 39.90 42.61 38.82 42.24 39.90 39.44 36.96 36.33 35.89 31.96 34.45 41.28 39.75 41.03 42.42 43.62 44.38 44.71 44.56 43.80 43.14 43.75 43.10 42.87 42.69 42.89 44.03 44.41 45.31 47.02 49.29 48.48 46.63 45.27 44.09 43.51 42.75 42.05 40.57 40.30
40.56 42.21 41.42 41.26 43.31 43.03 43.49 39.97 39.00 37.69 35.17 26.77 33.25 31.59 30.25 34.97 39.49 42.12 42.79 43.12 44.22 44.42 44.28 43.78 43.36 42.11 41.67 41.96 42.58 41.88 42.19 41.94 43.64 43.99 44.65 44.86 43.94 43.22 42.20 42.60 41.20 39.81 38.53 37.65
37.46 38.43 40.35 41.65 39.08 41.82 40.02 35.89 26.05 26.45 26.15 24.94 34.38 32.21 33.86 40.02 41.90 42.45 42.26 42.58 43.37 44.05 43.17 41.78 39.68 38.89 39.72 40.68 41.40 41.54 40.39 39.55 40.49 40.74 41.21 41.65 41.49 41.03 40.44 40.03 39.13 36.97 35.66 35.80
30.15 27.42 37.62 40.67 39.32 36.83 36.95 35.63 28.21 22.59 25.46 26.20 33.62 27.22 33.49 39.07 38.28 39.34 40.22 42.00 43.07 42.40 41.98 40.02 38.67 38.17 38.62 39.72 40.55 39.21 38.65 37.88 37.92 37.58 37.70 38.36 38.79 38.03 38.49 37.50 36.52 35.18 35.03 34.27
30.69 30.99 39.70 40.54 41.29 40.90 36.31 32.52 38.02 30.71 28.01 26.12 29.43 33.52 38.26 36.29 35.07 36.25 37.49 41.28 41.12 40.70 39.67 38.23 38.16 37.82 37.10 37.28 38.22 38.17 36.91 36.06 36.12 35.44 35.20 35.45 35.52 35.20 34.74 34.87 35.16 33.65 34.38 34.22
35.41 29.01 37.38 38.80 39.73 40.06 37.66 39.90 31.05 30.96 19.33 21.49 26.96 28.19 31.74 33.95 35.36 35.24 36.48 38.87 39.37 39.18 38.31 37.51 36.60 34.97 34.81 34.94 35.09 35.45 35.10 34.27 34.19 33.79 33.02 32.64 32.56 32.99 33.50 33.63 33.32 33.26 33.20 33.40
36.95 33.03 30.94 36.18 34.12 34.30 34.64 33.14 35.28 34.44 30.67 25.17 23.43 27.17 33.53 35.54 36.19 34.70 36.30 38.74 38.65 38.05 36.41 34.74 33.74 33.21 32.94 32.46 32.24 33.05 32.82 31.85 31.52 31.29 31.01 30.95 31.16 31.87 32.08 31.49 31.52 31.73 31.70 31.95
37.74 34.53 27.37 31.05 37.75 39.19 38.95 36.11 36.67 29.39 27.00 29.38 28.66 28.86 38.63 37.29 37.75 38.13 36.87 38.03 37.98 37.03 35.19 33.49 32.32 30.98 29.75 29.33 29.75 29.23 30.05 29.87 30.06 30.37 30.08 29.71 29.99 30.19 29.70 29.42 30.17 31.26 30.59 31.24
37.45 30.26 23.71 26.99 31.65 34.60 32.77 36.26 37.07 37.11 35.68 29.61 26.02 28.18 36.13 35.81 34.82 35.76 36.14 35.94 36.39 35.33 34.12 33.17 31.44 29.74 28.84 28.64 28.76 28.45 28.31 28.40 28.96 29.06 28.44 28.22 28.16 28.17 27.80 27.99 29.07 29.64 29.31 29.54
40.19 33.19 29.15 23.22 27.12 33.62 30.23 34.08 36.19 35.17 30.50 30.70 30.97 33.00 33.87 33.97 34.60 35.39 35.62 35.57 35.33 35.08 34.22 33.05 30.91 29.49 29.25 28.82 28.15 28.15 27.79 27.94 28.10 28.05 27.37 26.53 26.69 26.93 26.86 27.47 27.62 27.82 28.38 27.89
37.50 29.58 30.02 32.00 33.12 33.13 32.36 32.87 34.31 33.09 34.58 30.81 33.77 34.03 37.84 40.04 39.41 35.75 36.79 35.82 34.93 34.05 33.47 33.10 30.36 29.09 29.07 28.30 27.57 27.52 27.08 27.04 27.44 26.79 26.08 25.93 26.34 26.60 26.39 25.82 25.98 26.46 26.24 26.72
37.23 29.45 31.11 28.36 32.50 31.93 29.78 32.39 33.11 34.69 35.15 35.22 35.77 34.92 41.74 40.54 39.00 36.26 36.20 35.62 34.38 33.84 33.89 33.31 31.34 29.61 28.74 27.66 27.15 26.96 26.35 26.11 26.66 25.86 25.00 25.02 25.18 24.91 24.20 24.14 24.06 24.16 23.88 24.19
31.58 31.30 29.03 25.24 29.63 29.59 25.72 30.46 32.03 32.71 34.50 35.94 31.71 37.11 40.84 39.30 39.93 41.10 36.07 36.09 34.92 34.54 34.00 33.18 31.71 30.33 29.39 27.83 27.53 26.21 25.92 25.93 25.80 25.00 24.84 24.43 24.01 23.39 22.89 22.86 22.59 22.22 21.61 22.20
26.60 27.08 27.66 26.26 25.61 20.21 30.18 35.90 35.70 33.71 34.76 36.23 36.48 38.49 40.03 38.98 40.11 39.59 39.14 37.99 36.18 35.53 34.59 34.00 32.86 31.37 30.03 28.63 27.44 26.85 25.99 25.22 24.80 24.27 23.96 24.05 23.59 23.01 22.89 22.51 21.96 21.24 21.07 20.51
31.73 27.37 23.62 22.41 23.04 27.84 28.97 31.75 31.71 30.99 31.43 37.23 36.39 38.03 39.19 40.21 38.23 36.85 41.23 41.28 39.70 37.52 37.07 35.89 34.41 32.47 30.14 27.98 27.26 25.97 24.82 24.58 24.37 23.83 23.53 23.47 23.35 22.68 22.69 22.53 21.34 21.20 20.49 20.25
30.14 30.21 24.10 21.73 18.43 18.55 28.96 34.67 36.68 35.07 27.29 38.02 38.29 37.92 38.05 38.27 31.95 36.82 42.44 42.29 40.63 39.75 38.86 36.01 34.21 32.04 29.11 27.48 26.81 25.24 24.00 23.60 23.40 23.52 23.33 23.54 23.58 22.75 22.18 22.05 21.78 21.92 21.24 21.77
22.91 24.92 22.08 21.80 19.31 23.17 32.26 35.23 34.80 26.63 28.72 38.31 39.08 39.42 39.24 36.59 38.96 41.87 39.87 40.33 41.59 39.53 35.70 35.33 32.85 30.22 28.77 27.62 26.44 24.20 23.55 23.12 24.43 24.04 23.46 23.05 22.95 22.73 22.36 21.78 20.81 20.82 20.59 20.76
18.04 16.80 21.26 24.46 21.23 17.93 32.96 33.30 30.94 33.59 35.50 35.79 35.68 37.96 36.46 36.65 38.50 40.65 40.56 36.91 36.54 35.25 34.30 33.33 31.04 29.55 28.65 27.19 25.99 23.93 22.92 24.64 23.64 22.84 22.14 21.51 21.57 22.50 21.84 19.95 19.83 20.19 19.36 18.32
18.03 23.10 20.66 22.48 23.95 32.01 31.44 32.88 33.96 33.06 31.68 32.33 31.66 32.99 34.08 34.26 35.24 36.61 35.01 34.61 34.58 35.01 33.61 32.35 30.33 28.34 27.17 26.29 26.06 23.73 24.19 23.52 22.00 20.79 19.91 19.44 19.82 20.90 20.39 19.23 18.43 18.21 18.31 17.61
23.32 23.69 24.14 21.98 27.59 29.37 31.95 34.39 33.91 33.81 34.09 31.65 31.90 32.37 32.01 31.60 32.81 33.88 33.00 32.26 32.72 32.60 31.90 30.90 29.20 26.70 24.69 25.22 25.65 25.20 23.52 22.25 20.38 19.32 18.14 18.52 18.29 18.09 18.57 19.63 19.29 18.08 17.23 17.09
23.98 23.25 22.16 25.24 28.85 30.20 32.01 32.08 33.53 34.60 33.59 32.15 31.93 31.23 30.97 31.00 32.07 31.80 32.42 31.11 32.05 31.56 30.68 29.23 27.84 25.85 24.35 24.33 24.37 23.38 21.97 20.50 19.27 18.27 17.42 17.36 17.67 17.26 17.27 18.27 17.94 18.32 18.49 18.88
24.33 23.67 22.38 21.77 28.28 29.18 30.41 31.68 31.93 30.92 32.68 32.86 30.18 29.46 30.51 29.92 30.85 30.55 29.80 30.51 30.19 29.01 28.01 26.86 26.23 24.74 23.14 23.06 22.22 20.61 20.11 20.29 18.40 16.64 16.43 16.39 16.09 16.08 16.19 16.11 15.22 22.25 22.05 23.53
MSLP
1014.79 1014.69 1014.47 1014.69 1015.17 1015.84 1016.01 1016.73 1017.03 1016.99 1017.29 1017.57 1017.50 1017.37 1017.28 1017.66 1018.24 1018.51 1018.85 1019.59 1020.49 1021.34 1021.86 1022.27 1022.61 1022.56 1022.47 1022.74 1023.07 1023.14 1023.11 1022.90 1022.82 1022.83 1023.02 1023.61 1024.14 1024.45 1024.68 1024.91 1024.98 1024.69 1024.60 1024.25
1015.37 1014.69 1014.14 1014.44 1014.91 1015.64 1015.86 1016.23 1016.69 1016.87 1017.13 1017.83 1017.80 1017.32 1016.98 1016.80 1017.14 1017.58 1018.02 1018.77 1019.87 1020.86 1021.61 1021.90 1022.44 1022.65 1022.72 1022.72 1022.99 1023.26 1023.33 1023.31 1023.15 1023.05 1023.29 1023.65 1024.23 1024.70 1024.90 1025.21 1025.41 1025.28 1025.18 1024.97
1014.79 1014.47 1014.17 1014.79 1015.24 1015.53 1015.69 1015.93 1016.30 1016.85 1017.59 1018.07 1018.16 1016.87 1016.36 1016.01 1016.24 1016.81 1017.17 1017.94 1018.85 1019.96 1020.96 1021.49 1022.12 1022.60 1022.77 1023.18 1023.07 1023.49 1023.51 1023.49 1023.58 1023.32 1023.56 1023.90 1024.31 1024.73 1025.07 1025.44 1025.72 1025.68 1025.63 1025.55
1014.92 1014.37 1014.30 1014.98 1015.19 1015.50 1015.50 1015.66 1016.33 1016.92 1017.64 1018.23 1018.50 1017.16 1015.41 1015.14 1015.28 1015.74 1016.45 1016.94 1017.82 1018.99 1020.22 1021.11 1021.94 1022.58 1023.12 1023.58 1023.45 1023.58 1023.75 1023.73 1023.74 1023.55 1023.78 1023.93 1024.28 1024.77 1025.36 1025.71 1026.02 1026.02 1026.00 1026.25
1014.80 1014.47 1014.79 1015.10 1015.27 1015.50 1015.72 1015.90 1016.44 1017.09 1017.68 1018.11 1018.45 1018.66 1015.18 1014.49 1014.90 1015.12 1015.52 1016.42 1017.44 1018.41 1019.60 1020.71 1021.60 1022.38 1023.21 1023.84 1023.93 1023.69 1023.97 1024.03 1023.89 1023.98 1023.95 1024.12 1024.54 1025.07 1025.57 1025.89 1026.02 1026.15 1026.40 1026.71
1014.91 1015.02 1015.05 1015.07 1015.13 1015.42 1015.67 1016.31 1016.78 1017.34 1017.91 1018.08 1017.48 1017.94 1014.92 1014.37 1014.11 1014.21 1014.89 1015.93 1017.03 1018.13 1019.38 1020.47 1021.55 1022.47 1023.37 1024.02 1024.01 1023.93 1024.06 1024.30 1024.27 1024.38 1024.54 1024.74 1025.07 1025.50 1025.91 1025.98 1026.22 1026.36 1026.86 1027.04
1015.71 1015.55 1015.49 1015.45 1015.39 1015.60 1016.15 1016.41 1017.30 1017.95 1018.33 1017.62 1016.70 1016.96 1014.58 1013.89 1013.63 1013.70 1014.23 1015.33 1016.64 1018.06 1019.39 1020.54 1021.58 1022.55 1023.54 1023.93 1024.35 1024.05 1024.16 1024.40 1024.54 1024.71 1024.95 1025.25 1025.52 1025.54 1026.10 1026.31 1026.43 1026.64 1027.20 1027.59
1015.64 1015.39 1015.36 1015.60 1015.28 1015.59 1016.14 1016.47 1016.90 1017.42 1017.86 1017.38 1016.72 1015.25 1013.36 1012.90 1013.22 1013.81 1014.23 1014.81 1016.47 1018.08 1019.36 1020.64 1021.60 1022.66 1023.21 1023.93 1024.40 1024.32 1024.33 1024.56 1024.80 1024.97 1025.49 1025.59 1026.01 1026.20 1026.53 1026.72 1026.68 1027.23 1027.50 1028.02
1014.99 1014.92 1014.17 1014.82 1015.11 1015.43 1016.03 1016.36 1016.78 1017.36 1017.77 1017.86 1016.33 1014.28 1013.06 1013.05 1013.58 1014.27 1014.82 1015.36 1016.47 1017.95 1019.24 1020.49 1021.60 1022.54 1023.17 1023.66 1024.31 1024.44 1024.77 1024.90 1025.09 1025.33 1025.72 1026.00 1026.39 1026.48 1026.80 1026.99 1027.24 1027.52 1028.00 1028.09
1015.85 1015.61 1014.96 1015.35 1015.62 1015.52 1015.67 1016.07 1016.92 1017.35 1018.01 1017.15 1015.28 1014.14 1013.11 1013.08 1013.53 1014.37 1015.26 1015.94 1016.99 1018.32 1019.59 1020.80 1021.82 1022.71 1023.34 1023.78 1024.28 1024.53 1024.91 1025.48 1025.59 1025.60 1025.84 1026.49 1026.90 1026.85 1026.88 1027.34 1027.85 1028.28 1028.30 1028.42
1016.33 1016.64 1016.85 1016.41 1016.10 1015.60 1015.90 1016.05 1016.04 1016.50 1016.85 1016.15 1015.18 1013.44 1012.57 1012.62 1013.14 1014.05 1015.26 1016.17 1017.13 1018.44 1019.63 1020.88 1021.89 1022.85 1023.48 1023.94 1024.35 1024.47 1024.75 1025.53 1026.15 1026.13 1026.24 1026.94 1026.90 1026.99 1027.26 1027.84 1028.25 1028.66 1028.58 1028.66
1016.32 1017.05 1017.00 1016.37 1015.82 1015.52 1015.37 1015.31 1015.60 1015.55 1015.75 1015.84 1015.57 1012.72 1012.18 1012.10 1012.89 1013.61 1014.89 1016.15 1017.31 1018.35 1019.59 1020.82 1021.83 1022.83 1023.62 1023.92 1024.23 1024.50 1024.93 1025.35 1025.85 1026.28 1026.59 1026.84 1027.11 1027.10 1027.73 1028.06 1028.55 1028.72 1028.82 1028.99
1016.45 1017.29 1017.57 1016.92 1016.56 1015.79 1015.56 1015.19 1015.24 1015.12 1015.27 1014.98 1015.08 1012.44 1011.90 1012.00 1012.89 1013.76 1014.68 1015.90 1017.11 1018.25 1019.42 1020.54 1021.53 1022.46 1023.36 1023.86 1024.00 1024.26 1024.54 1025.15 1025.64 1026.12 1026.58 1026.50 1027.07 1027.32 1027.91 1028.25 1028.73 1029.00 1028.87 1029.16
1017.23 1017.21 1016.79 1016.13 1015.10 1015.08 1015.59 1015.08 1014.79 1014.86 1014.87 1013.32 1013.78 1011.27 1011.73 1012.07 1012.66 1013.56 1014.43 1015.37 1016.43 1017.61 1018.70 1019.91 1021.01 1021.78 1022.49 1023.07 1023.60 1023.85 1024.36 1024.87 1025.26 1025.89 1026.17 1026.36 1027.10 1027.60 1027.82 1028.43 1028.97 1029.09 1029.25 1029.29
1018.41 1018.27 1017.70 1016.75 1016.02 1015.54 1014.96 1014.77 1014.48 1014.35 1013.59 1013.14 1010.62 1011.16 1010.94 1011.26 1011.66 1012.47 1013.09 1014.61 1015.96 1017.06 1018.12 1018.94 1019.94 1020.89 1021.72 1022.38 1022.87 1023.51 1024.10 1024.57 1024.96 1025.40 1025.80 1026.43 1027.01 1027.50 1027.92 1028.59 1029.03 1029.12 1029.40 1029.64
1019.11 1018.31 1018.17 1017.46 1016.40 1016.28 1015.40 1014.75 1014.36 1013.55 1012.36 1011.85 1011.13 1010.21 1009.24 1010.06 1010.62 1011.38 1012.34 1013.65 1014.79 1015.70 1016.65 1017.74 1018.76 1019.55 1020.30 1021.24 1021.95 1022.70 1023.34 1024.02 1024.50 1024.90 1025.43 1026.09 1026.81 1027.40 1027.93 1028.53 1028.85 1029.21 1029.66 1029.95
1019.92 1018.88 1018.30 1016.78 1016.06 1015.95 1015.06 1013.98 1012.95 1012.55 1012.39 1011.61 1010.59 1007.88 1009.65 1009.61 1009.96 1010.33 1011.28 1012.16 1012.97 1013.77 1014.88 1016.01 1016.89 1018.12 1019.12 1020.06 1020.99 1021.84 1022.70 1023.48 1024.04 1024.64 1025.26 1025.99 1026.62 1027.21 1027.73 1028.28 1028.74 1029.22 1029.65 1029.97
1019.93 1019.72 1019.15 1016.62 1016.07 1014.17 1012.41 1011.48 1011.61 1011.39 1010.69 1010.48 1009.87 1008.20 1008.43 1008.49 1008.84 1008.98 1009.37 1010.08 1011.04 1012.26 1013.26 1014.28 1015.33 1016.62 1017.92 1019.30 1020.35 1021.21 1022.16 1023.02 1023.59 1024.30 1025.00 1025.68 1026.30 1026.95 1027.53 1028.08 1028.56 1029.05 1029.50 1029.96
1019.37 1019.33 1019.11 1017.82 1015.26 1013.03 1011.68 1010.61 1010.78 1010.60 1009.29 1009.26 1009.34 1007.43 1006.57 1008.19 1008.71 1007.89 1007.84 1008.59 1009.00 1009.96 1010.67 1011.37 1012.73 1014.41 1016.35 1017.75 1019.13 1020.39 1021.51 1022.41 1023.20 1023.80 1024.40 1025.06 1025.68 1026.48 1027.13 1027.69 1028.30 1028.85 1029.30 1029.75
1018.60 1018.29 1018.27 1017.51 1015.75 1012.49 1009.71 1008.72 1009.40 1009.76 1009.03 1007.63 1007.93 1006.49 1006.76 1007.44 1007.71 1005.68 1006.47 1006.72 1007.35 1008.01 1008.94 1010.09 1011.69 1013.41 1015.13 1016.38 1017.82 1019.17 1020.30 1021.34 1022.17 1022.94 1023.82 1024.62 1025.33 1026.02 1026.68 1027.32 1027.95 1028.42 1028.98 1029.53
1018.79 1018.17 1017.25 1016.05 1014.41 1011.68 1009.53 1008.69 1008.80 1008.97 1008.62 1006.60 1006.30 1006.39 1006.22 1006.43 1005.83 1004.26 1005.73 1005.82 1006.13 1007.04 1008.66 1009.94 1011.26 1012.16 1013.52 1015.29 1016.45 1017.84 1018.99 1019.84 1020.93 1022.22 1023.37 1024.29 1024.99 1025.69 1026.37 1027.05 1027.65 1028.23 1028.78 1029.39
1017.47 1017.05 1015.67 1015.04 1013.71 1010.91 1008.73 1008.02 1008.47 1008.11 1007.77 1007.81 1007.72 1006.92 1006.49 1006.03 1005.73 1005.40 1005.36 1005.77 1006.28 1007.20 1008.56 1009.57 1010.64 1011.73 1013.23 1014.58 1015.67 1016.87 1017.88 1018.99 1020.34 1021.68 1022.96 1024.03 1024.81 1025.42 1026.10 1026.85 1027.61 1028.15 1028.64 1029.28
1016.26 1015.32 1014.50 1013.66 1011.07 1009.18 1008.88 1009.32 1008.46 1008.97 1009.29 1008.89 1008.77 1008.81 1008.67 1008.34 1007.57 1006.65 1005.87 1005.72 1006.03 1006.87 1008.10 1009.14 1010.25 1011.68 1012.93 1014.03 1014.96 1015.99 1017.11 1018.42 1019.86 1021.35 1022.63 1023.74 1024.72 1025.23 1025.89 1026.59 1027.38 1028.02 1028.53 1029.04
1014.95 1014.14 1013.38 1013.53 1008.72 1009.66 1008.89 1008.25 1008.74 1009.14 1009.22 1008.99 1008.99 1009.06 1008.70 1008.48 1008.17 1007.96 1007.41 1006.68 1006.44 1006.93 1007.76 1008.71 1009.82 1010.91 1012.03 1013.34 1014.48 1015.56 1016.61 1017.92 1019.42 1020.95 1022.31 1023.40 1024.18 1025.06 1025.84 1026.39 1027.01 1027.49 1028.05 1028.57
1014.60 1014.13 1013.04 1011.27 1008.91 1009.72 1007.72 1008.47 1008.32 1008.00 1008.21 1007.99 1007.89 1007.82 1008.42 1008.81 1008.06 1007.93 1007.66 1007.41 1007.01 1006.90 1007.65 1008.38 1009.07 1010.17 1011.52 1012.87 1014.10 1015.18 1016.27 1017.46 1019.00 1020.53 1021.94 1023.09 1024.01 1024.77 1025.50 1026.02 1026.33 1026.73 1027.22 1027.47
1013.39 1011.85 1012.27 1009.23 1008.61 1008.18 1007.08 1007.29 1007.19 1007.58 1007.75 1007.69 1007.72 1007.51 1007.09 1007.74 1007.77 1007.76 1007.67 1007.64 1007.57 1007.52 1007.58 1008.43 1009.28 1010.21 1011.52 1012.66 1014.00 1015.09 1016.15 1017.09 1018.39 1020.01 1021.32 1022.39 1023.48 1024.46 1025.14 1025.77 1026.31 1026.41 1026.67 1026.90
Wind_Speed
5 3 4 9 8 5 2 6 5 5 4 2 12 12 9 11 8 9 8 8 8 7 6 7 6 5 6 5 4 2 2 2 3 2 3 4 3 4 5 5 7 7 8 9
2 5 6 6 5 3 2 5 5 2 4 2 7 12 12 10 12 13 10 9 9 8 7 7 7 5 5 6 6 4 4 4 4 2 3 3 3 4 4 4 6 7 8 8
5 3 5 6 3 4 4 4 4 3 4 3 5 11 13 11 9 10 9 11 10 13 11 9 8 6 6 5 6 5 4 4 1 3 4 5 5 3 3 4 4 6 6 6
7 3 5 7 6 6 5 6 2 5 3 3 6 8 6 15 17 16 14 12 15 13 11 9 9 7 6 5 4 5 5 4 3 3 4 5 2 4 3 3 3 4 7 7
1 7 5 6 7 6 1 4 2 3 5 6 6 5 6 6 13 16 17 14 11 13 12 10 9 7 8 5 4 6 5 5 4 5 3 3 6 5 3 3 5 6 7 7
5 3 2 5 6 5 4 3 2 1 3 4 11 8 5 4 8 10 12 14 14 13 12 9 8 8 6 5 4 5 6 5 4 5 6 5 6 5 3 4 4 5 5 5
7 7 2 1 5 5 5 4 1 2 2 6 1 8 10 13 7 8 8 15 14 12 11 10 10 8 7 6 5 6 6 6 6 6 6 6 6 7 6 5 4 6 5 5
8 5 10 8 8 5 10 8 5 4 2 4 2 8 6 3 3 6 4 4 12 11 10 10 9 7 8 7 6 5 6 6 6 6 6 6 6 4 4 4 6 5 5 4
4 8 5 11 5 7 8 12 9 7 2 1 6 7 9 5 2 1 3 8 13 13 11 11 10 8 7 7 6 6 5 5 6 6 5 5 5 6 5 7 6 5 4 6
5 5 1 4 3 7 4 1 7 3 3 6 7 8 9 5 7 7 6 8 9 10 10 10 8 8 6 6 5 6 6 5 5 6 6 5 5 6 8 7 7 5 5 5
4 2 3 4 6 7 4 3 6 7 6 4 3 6 3 4 3 9 8 7 10 11 10 8 7 7 7 6 6 6 8 7 4 5 7 5 5 7 7 6 6 4 5 5
7 2 8 8 7 7 12 16 14 6 5 7 7 13 6 7 7 8 9 10 8 9 9 9 8 8 7 7 7 7 7 8 7 6 7 7 7 7 7 6 5 4 6 5
7 5 5 6 1 4 5 10 9 13 8 12 5 8 2 6 5 3 9 9 9 11 10 11 11 10 9 8 8 9 9 9 8 7 7 8 6 7 7 6 5 5 6 6
5 4 10 14 11 9 7 13 15 15 11 22 18 27 4 4 7 8 8 10 10 12 14 12 12 12 12 11 10 10 9 10 9 9 8 8 7 7 7 6 5 6 5 6
5 5 4 13 16 13 14 8 17 18 22 18 29 25 20 16 11 11 14 11 12 14 14 15 15 13 13 12 11 10 10 10 10 9 9 8 7 7 7 7 6 6 6 6
7 8 10 19 21 13 16 16 9 17 27 24 28 28 20 8 3 4 12 14 15 15 17 18 17 17 16 15 14 13 13 12 11 11 10 9 9 8 7 7 7 6 6 6
5 5 7 14 14 13 16 22 25 22 13 17 20 34 13 12 11 12 14 18 20 20 20 21 21 18 17 17 16 16 14 12 11 10 10 10 9 9 8 7 7 7 7 6
6 7 5 11 4 16 10 14 25 27 26 24 22 25 21 12 11 11 11 19 20 18 20 20 19 19 18 16 15 14 13 13 12 12 12 11 11 10 9 8 7 7 6 6
18 9 5 7 9 11 8 9 9 14 28 26 27 35 34 21 12 15 17 14 20 22 22 23 21 21 19 19 18 16 15 14 13 13 13 12 12 12 11 10 9 7 6 5
16 15 10 11 14 10 16 22 8 10 17 24 23 31 27 16 12 23 17 19 18 22 18 18 21 20 20 20 20 19 18 17 16 15 13 12 12 12 11 10 10 6 7 7
5 7 17 17 14 13 16 17 3 17 14 20 20 23 23 18 18 29 8 10 16 14 11 15 21 22 22 21 21 21 19 19 16 14 13 12 12 12 10 10 5 6 6 7
9 6 11 8 14 28 7 9 25 7 9 11 7 12 7 9 12 18 13 8 10 12 15 19 19 19 19 21 21 21 20 17 15 15 14 12 11 9 9 10 8 7 7 6
12 15 10 10 16 7 4 4 9 5 6 7 5 8 10 13 11 11 7 9 11 15 17 18 18 18 17 20 21 21 18 18 17 16 14 12 10 9 9 10 9 7 7 6
9 2 11 5 26 25 26 18 7 4 7 5 5 6 6 12 12 16 8 7 10 13 17 17 19 19 20 20 19 17 18 18 18 16 14 12 12 10 9 7 7 7 7 7
8 1 6 21 28 20 26 13 15 17 10 8 7 7 7 10 16 10 11 8 9 13 14 17 18 18 19 18 17 15 18 19 17 15 13 12 9 10 9 7 8 7 7 8
12 19 13 21 14 13 17 9 5 6 9 10 7 6 6 8 13 9 8 7 7 11 13 14 15 15 16 18 15 15 17 19 18 15 12 11 10 9 8 7 5 13 10 15
Wind_Direction
210 209 183 188 193 72 29 165 197 220 140 272 242 254 211 190 203 224 189 169 174 174 166 152 156 141 132 119 96 58 115 350 168 168 103 87 91 82 66 51 29 28 24 14
117 239 201 52 61 103 275 181 212 168 94 150 292 277 265 203 203 204 199 180 175 159 184 168 158 161 139 128 109 55 53 25 20 46 86 112 105 77 94 77 43 32 34 23
206 81 192 131 176 200 224 252 223 247 140 219 295 272 238 241 191 205 211 187 180 179 187 175 167 164 129 99 107 95 72 77 40 88 94 98 111 129 102 67 54 33 42 27
247 174 169 147 224 206 246 176 271 283 167 260 137 291 251 225 224 197 206 198 185 174 180 170 174 156 136 126 116 109 78 72 7 360 154 164 151 121 97 100 96 68 42 32
188 140 172 187 216 207 80 82 135 203 249 275 184 275 272 228 220 211 210 204 186 181 181 173 162 150 129 151 156 115 112 81 28 7 69 115 100 103 124 121 97 82 62 33
231 18 257 219 204 214 104 164 166 287 240 280 216 178 256 196 231 232 207 204 193 181 173 162 143 127 136 153 153 135 113 103 70 64 47 83 121 132 135 118 96 76 64 50
249 207 148 352 226 184 159 160 315 266 247 237 185 188 246 282 243 221 204 198 187 174 166 157 144 146 154 164 170 147 131 116 101 91 80 75 80 84 84 84 85 85 67 54
209 222 165 182 211 172 207 198 178 225 233 307 27 244 259 171 80 42 46 220 156 159 157 153 148 162 161 164 175 140 131 123 108 100 97 85 83 85 79 76 90 80 76 74
242 225 129 151 195 204 183 219 239 317 350 354 239 257 287 93 107 207 206 149 158 156 155 155 157 166 153 151 167 140 129 128 123 123 106 98 102 105 102 80 76 81 100 94
314 294 90 103 49 283 254 164 204 232 224 241 245 245 243 220 222 184 190 163 153 151 156 157 155 142 148 152 149 136 133 141 131 111 104 93 96 95 92 94 88 93 91 88
174 271 355 70 210 187 191 231 236 174 212 226 295 260 239 108 109 181 181 182 160 161 156 149 145 150 161 154 163 147 136 132 132 113 112 124 116 105 99 100 92 100 96 88
190 273 242 204 221 224 231 218 215 206 224 220 252 257 241 169 151 148 174 170 164 160 154 154 156 164 168 173 169 156 152 148 151 146 139 131 126 114 108 107 110 105 95 86
164 224 254 318 230 199 221 234 244 241 255 248 204 263 52 91 131 167 162 165 170 161 165 165 168 174 178 185 175 169 160 157 153 150 153 133 128 118 124 115 118 116 105 94
353 239 200 220 220 159 200 218 226 224 232 242 238 252 247 200 198 187 196 173 174 175 177 178 179 182 183 181 182 170 165 163 159 158 149 133 141 138 127 123 126 115 108 101
123 243 305 279 271 273 263 223 224 227 235 230 241 248 245 251 252 206 194 165 172 185 188 190 184 186 189 183 175 172 168 166 163 158 146 148 143 131 124 128 129 115 108 108
174 242 240 266 267 262 272 270 256 237 235 242 254 260 251 240 263 146 171 176 192 193 196 195 191 188 188 184 179 175 171 170 167 160 155 145 141 140 140 141 135 123 121 119
292 231 197 242 242 263 252 235 242 245 255 239 238 247 257 254 250 246 187 191 196 200 194 196 194 191 188 183 179 178 171 164 167 159 151 153 152 149 148 146 141 139 139 127
223 254 306 260 151 224 234 239 232 239 239 242 258 265 259 240 249 235 208 200 205 195 196 199 191 188 184 179 179 170 166 168 166 162 160 160 157 155 154 153 149 145 142 144
212 221 240 265 254 267 276 247 208 222 246 240 241 253 257 261 266 265 235 216 209 196 199 197 189 179 173 175 173 167 168 169 169 169 168 166 162 160 161 162 156 155 146 141
220 216 220 241 262 268 241 248 206 221 252 240 232 245 257 252 251 259 248 223 207 204 202 186 176 173 171 175 168 168 171 172 178 172 169 165 163 163 166 161 162 154 147 150
197 213 221 236 248 250 255 266 116 211 236 256 232 245 254 241 233 256 200 234 208 202 175 165 170 178 178 170 168 172 172 181 171 162 160 162 162 163 161 152 141 146 148 146
215 212 223 228 243 255 237 278 216 232 274 323 322 292 273 254 257 261 251 201 163 163 165 171 174 177 174 172 171 173 179 168 158 154 156 159 158 160 154 146 147 158 151 154
243 221 241 225 252 271 237 323 294 360 292 311 20 326 331 313 308 295 232 187 178 170 172 173 173 172 173 176 178 176 173 159 153 153 155 152 149 150 148 153 157 157 159 167
252 230 243 262 259 263 277 292 247 255 243 242 224 257 288 295 299 297 267 208 179 174 175 173 172 175 173 177 181 178 161 155 152 154 155 156 155 148 152 156 164 167 172 177
240 71 245 257 263 272 266 257 262 261 221 230 219 197 242 278 291 277 262 234 202 182 176 177 178 176 175 173 175 165 160 154 153 151 154 157 157 160 160 172 174 181 189 186
215 237 228 247 248 235 263 261 202 210 235 248 241 269 208 213 270 268 246 225 203 188 173 177 177 169 169 169 167 158 157 157 153 152 157 162 159 163 166 167 166 204 197 207